Meteopurmerend
purmerend
Purmerend - Baaienwijk



My webcam  My webcam


Onweer radar Meer informatie blitzortung!


Regen radar Meer informatie rain snow radar


Bezoek onze andere website:

CandyAppleRed WebdesignWebdesign Purmerend Candy Apple Red

MeteopurmerendBlog

Template documentation
and downloads



Het weer levert geen direct gevaar op.    Er zijn geen waarschuwingen afgegeven.

15 daagse weersverwachting Ålesund (NO)

  • Overzicht
  • Per uur
  • 15 dagen
  • Extra
  • Vergelijk
  • Kaarten
  • Dagkaart
  • Meer »
  • Info
  • Statistieken
  • Directe link
    Temp 6h Neerslag Wind  
 06:51     20:27    Daglengte: 13:36 Vandaag
14:00
13.7 mm
7
20:00
12.2 mm
11
 06:48     20:30    Daglengte: 13:42 Morgen
02:00
14.5 mm
10
08:00
17.7 mm
7
warningclass
14:00
20.1 mm
7
20:00
21.4 mm
10
warningclass
 06:45     20:33    Daglengte: 13:48 Zaterdag 04 Apr
02:00
23.1 mm
11
warningclass
08:00
-0°
20.7 mm
5
warningclass
14:00
14.5 mm
6
warningclass
20:00
36.0 mm
4
 06:41     20:35    Daglengte: 13:54 Zondag 05 Apr
02:00
9.3 mm
4
Locatie info
Region: Møre og Romsdal
Latitude: 62.4715°N
Longitude: 6.1729°E
3 masl
Postcode: 6003
Temp/Neerslag /Baro Onweer/DauwpuntSneeuw
    Temp Baro 1h Neerslag Dauwpunt Wind UV BewolkingSneeuw  
 06:51     20:27    Daglengte: 13:36 Vandaag
10:00
Voelt als: -5.0°
975.6 hPa 1.9 mm
82%
-2.3°
10
Windvlaag: 15.8 m/s
83%1 cm
11:00
Voelt als: -4.9°
975.8 hPa 2.1 mm
82%
-3.3°
9
Windvlaag: 14.1 m/s
87%2 cm warningclass
12:00
Voelt als: -4.4°
976.0 hPa 2.1 mm
82%
-3.5°
11
Windvlaag: 14 m/s
79%2 cm
13:00
Voelt als: -3.8°
976.2 hPa 2.1 mm
82%
-2.4°
8
Windvlaag: 13.3 m/s
80%2 cm
14:00
Voelt als: -3.0°
976.5 hPa 2.1 mm
82%
-2.8°
7
Windvlaag: 9.5 m/s
83%2 cm
15:00
Voelt als: -2.6°
976.8 hPa 2.2 mm
82%
-1.3°
6
Windvlaag: 8.4 m/s
69%2 cm
16:00
Voelt als: -2.8°
977.1 hPa 2.3 mm
82%
-4.3°
8
Windvlaag: 9.5 m/s
79%2 cm
17:00
Voelt als: -3.9°
977.5 hPa 1.7 mm
82%
-1.3°
8
Windvlaag: 10 m/s
86%2 cm
18:00
Voelt als: -3.4°
977.7 hPa 2.5 mm
82%
-0.7°
9
Windvlaag: 10.9 m/s
90%3 cm
19:00
Voelt als: -3.9°
979.6 hPa 1.9 mm
82%
-1.4°
12
Windvlaag: 7.5 m/s
60%3 cm
20:00
Voelt als: -3.0°
981.8 hPa 1.6 mm
82%
-0.9°
11
Windvlaag: 8.8 m/s
85%3 cm
21:00
Voelt als: -3.7°
983.9 hPa 2.2 mm
82%
-1.8°
13
Windvlaag: 14.4 m/s
64%3 cm
22:00
Voelt als: -3.5°
985.9 hPa 2.2 mm
82%
-3.6°
11
Windvlaag: 16.2 m/s
84%3 cm
23:00
Voelt als: -3.5°
987.4 hPa 2.5 mm
82%
-3.3°
11
Windvlaag: 13.1 m/s
78%3 cm
 06:48     20:30    Daglengte: 13:42 Morgen
00:00
Voelt als: -3.8°
988.6 hPa 2.4 mm
82%
-4.0°
10
Windvlaag: 12.2 m/s
44%3 cm
01:00
Voelt als: -3.8°
989.4 hPa 2.6 mm
82%
-4.8°
10
Windvlaag: 9.3 m/s
87%3 cm
02:00
Voelt als: -4.6°
990.5 hPa 2.6 mm
82%
-2.7°
10
Windvlaag: 13.1 m/s
88%3 cm
03:00
Voelt als: -3.9°
991.5 hPa 2.7 mm
82%
-5.3°
10
Windvlaag: 12.1 m/s
81%4 cm
04:00
Voelt als: -4.3°
992.1 hPa 2.8 mm
82%
-4.9°
10
Windvlaag: 12.1 m/s
90%4 cm
05:00
Voelt als: -4.1°
992.4 hPa 3.0 mm
82%
-4.4°
8
Windvlaag: 9.9 m/s
90%4 cm
06:00
Voelt als: -3.9°
992.7 hPa 3.3 mm
82%
-4.1°
8
Windvlaag: 8.8 m/s
91%4 cm
07:00
Voelt als: -4.9°
993.5 hPa 3.3 mm
82%
-3.5°
9
Windvlaag: 9.7 m/s
83%4 cm
08:00
Voelt als: -4.4°
994.4 hPa 2.6 mm
82%
-2.4°
7
Windvlaag: 13.2 m/s
85%4 cm warningclass
09:00
Voelt als: -4.4°
995.4 hPa 3.6 mm
82%
-4.6°
8
Windvlaag: 10.8 m/s
81%5 cm
10:00
Voelt als: -3.9°
996.4 hPa 3.6 mm
82%
-5.9°
7
Windvlaag: 9.3 m/s
84%5 cm
11:00
Voelt als: -5.1°
997.4 hPa 3.7 mm
82%
-3.8°
7
Windvlaag: 10.9 m/s
84%5 cm warningclass
12:00
Voelt als: -4.4°
998.3 hPa 2.8 mm
82%
-3.7°
6
Windvlaag: 11.7 m/s
83%5 cm warningclass
13:00
Voelt als: -4.2°
999.1 hPa 2.7 mm
82%
-3.0°
8
Windvlaag: 11.2 m/s
82%5 cm
14:00
Voelt als: -4.0°
1000.0 hPa 3.7 mm
82%
-4.6°
7
Windvlaag: 9.8 m/s
80%5 cm
15:00
Voelt als: -4.6°
1000.7 hPa 3.7 mm
82%
-5.3°
9
Windvlaag: 11.5 m/s
88%5 cm
16:00
Voelt als: -4.3°
1001.1 hPa 3.7 mm
82%
-4.1°
8
Windvlaag: 11.5 m/s
88%5 cm
17:00
Voelt als: -4.6°
1001.5 hPa 3.9 mm
82%
-4.6°
9
Windvlaag: 11.3 m/s
84%5 cm
18:00
Voelt als: -4.8°
1002.0 hPa 4.0 mm
82%
-4.3°
9
Windvlaag: 12.3 m/s
89%5 cm
19:00
Voelt als: -6.2°
1002.4 hPa 2.9 mm
82%
-2.9°
8
Windvlaag: 13.5 m/s
84%5 cm warningclass
20:00
Voelt als: -5.5°
1002.7 hPa 3.1 mm
82%
-4.3°
10
Windvlaag: 13 m/s
88%5 cm warningclass
21:00
Voelt als: -5.6°
1003.0 hPa 3.4 mm
82%
-5.2°
10
Windvlaag: 13.3 m/s
85%6 cm warningclass
22:00
Voelt als: -6.6°
1003.8 hPa 3.3 mm
82%
-3.7°
9
Windvlaag: 15.4 m/s
86%5 cm warningclass
23:00
Voelt als: -5.5°
1004.4 hPa 3.3 mm
82%
-5.9°
9
Windvlaag: 11.1 m/s
86%5 cm warningclass
 06:45     20:33    Daglengte: 13:48 Zaterdag 04 Apr
00:00
Voelt als: -5.8°
1005.0 hPa 4.3 mm
82%
-6.9°
10
Windvlaag: 12.3 m/s
77%5 cm warningclass
01:00
Voelt als: -5.9°
1005.5 hPa 4.3 mm
82%
-6.7°
11
Windvlaag: 13.1 m/s
50%5 cm warningclass
02:00
Voelt als: -5.7°
1006.3 hPa 4.5 mm
82%
-5.4°
11
Windvlaag: 13.3 m/s
71%6 cm warningclass
03:00
Voelt als: -5.9°
1007.0 hPa 4.3 mm
82%
-4.8°
10
Windvlaag: 12.6 m/s
79%6 cm warningclass
04:00
Voelt als: -6.4°
1008.0 hPa 4.5 mm
82%
-3.1°
9
Windvlaag: 13.2 m/s
70%6 cm warningclass
05:00
Voelt als: -5.6°
1009.7 hPa
100%
-5.2°
7
Windvlaag: 9.2 m/s
83%6 cm
06:00
-0°
Voelt als: -6.0°
1010.4 hPa 4.7 mm
100%
-4.3°
7
Windvlaag: 7.4 m/s
91%6 cm warningclass
07:00
-0°
Voelt als: -6.1°
1011.5 hPa 3.7 mm
100%
-4.6°
7
Windvlaag: 8.5 m/s
95%6 cm warningclass
08:00
-0°
Voelt als: -5.2°
1012.4 hPa 3.6 mm
100%
-3.9°
5
Windvlaag: 8 m/s
93%6 cm warningclass
09:00
-0°
Voelt als: -5.8°
1013.6 hPa 4.9 mm
100%
-4.1°
7
Windvlaag: 8.5 m/s
85%6 cm warningclass
10:00
Voelt als: -4.2°
1014.4 hPa 4.8 mm
100%
-5.7°
5
Windvlaag: 7.6 m/s
91%6 cm warningclass
11:00
Voelt als: -5.2°
1015.2 hPa 4.8 mm
100%
-2.7°
6
Windvlaag: 7.3 m/s
87%6 cm warningclass
12:00
Voelt als: -3.7°
1015.9 hPa
99%
-5.4°
6
Windvlaag: 6.1 m/s
85%6 cm
13:00
Voelt als: -3.2°
1016.7 hPa
100%
-7.0°
6
Windvlaag: 6.7 m/s
87%6 cm
14:00
Voelt als: -4.3°
1017.4 hPa
100%
-3.9°
6
Windvlaag: 7.9 m/s
97%5 cm
15:00
Voelt als: -3.5°
1017.7 hPa 7.3 mm
100%
-3.5°
5
Windvlaag: 1.8 m/s
85%5 cm
16:00
Voelt als: -2.6°
1017.5 hPa 7.2 mm
100%
-3.1°
5
Windvlaag: 0.8 m/s
96%5 cm
17:00
Voelt als: -1.7°
1017.1 hPa 7.2 mm
96%
-2.8°
4
Windvlaag: 1.4 m/s
92%5 cm
18:00
Voelt als: -1.4°
1016.7 hPa 7.2 mm
92%
-2.5°
4
Windvlaag: 3.4 m/s
95%5 cm
19:00
Voelt als: -1.6°
1016.3 hPa 7.2 mm
83%
-2.4°
4
Windvlaag: 3 m/s
100%5 cm
20:00
Voelt als: -1.7°
1016.1 hPa
75%
-2.3°
4
Windvlaag: 1.3 m/s
99%5 cm
21:00
Voelt als: -2.0°
1015.8 hPa
22%
-2.2°
4
Windvlaag: 1.9 m/s
99%6 cm
22:00
Voelt als: -1.4°
1015.5 hPa
21%
-1.7°
4
Windvlaag: 1.9 m/s
100%6 cm
23:00
Voelt als: -0.5°
1015.0 hPa
21%
-0.6°
4
Windvlaag: 0.6 m/s
100%6 cm
 06:41     20:35    Daglengte: 13:54 Zondag 05 Apr
00:00
Voelt als: -0.5°
1014.4 hPa
21%
-0.4°
4
Windvlaag: 0.9 m/s
100%6 cm
01:00
Voelt als: -0.6°
1014.1 hPa
29%
-0.3°
4
Windvlaag: 2.5 m/s
99%6 cm
02:00
Voelt als: -0.5°
1014.0 hPa 9.3 mm
85%
-0.2°
4
Windvlaag: 1.6 m/s
100%5 cm
03:00
Voelt als: -1.0°
1014.4 hPa 9.5 mm
98%
-0.1°
5
Windvlaag: 18 m/s
100%5 cm warningclass
04:00
Voelt als: -0.9°
1014.3 hPa 10.4 mm
100%
0.1°
5
Windvlaag: 16.1 m/s
100%5 cm
05:00
Voelt als: -0.7°
1014.2 hPa 10.6 mm
100%
0.4°
5
Windvlaag: 15.4 m/s
100%5 cm
06:00
Voelt als: -0.5°
1014.1 hPa 10.6 mm
100%
0.8°
6
Windvlaag: 14.5 m/s
100%5 cm
07:00
Voelt als: -0.3°
1014.1 hPa 11.0 mm
100%
1.1°
6
Windvlaag: 14.3 m/s
98%5 cm
08:00
Voelt als: -0.1°
1014.1 hPa 10.8 mm
100%
1.4°
7
Windvlaag: 2 m/s
100%5 cm
09:00
Voelt als: 2.2°
1015.9 hPa   2.4°
7
Windvlaag: 0 m/s
100%
Temp/Neerslag /Baro Onweer/DauwpuntSneeuw
    Temp Baro Neerslag Dauwpunt Wind BewolkingSneeuw  
 06:51     20:27    Daglengte: 13:36 Vandaag
11:00
Voelt als: -4.9°
975.8 hPa 7.4 mm -3.3°
9
87%2 cm warningclass
14:00
Voelt als: -3.0°
976.5 hPa 6.3 mm -2.8°
7
83%2 cm
17:00
Voelt als: -3.9°
977.5 hPa 6.2 mm -1.3°
8
86%2 cm
20:00
Voelt als: -3.0°
981.8 hPa 6.0 mm -0.9°
11
85%3 cm
23:00
Voelt als: -3.5°
987.4 hPa 6.9 mm -3.3°
11
78%3 cm
 06:48     20:30    Daglengte: 13:42 Morgen
02:00
Voelt als: -4.6°
990.5 hPa 7.6 mm -2.7°
10
88%3 cm
05:00
Voelt als: -4.1°
992.4 hPa 8.5 mm -4.4°
8
90%4 cm
08:00
Voelt als: -4.4°
994.4 hPa 9.2 mm -2.4°
7
85%4 cm warningclass
11:00
Voelt als: -5.1°
997.4 hPa 10.9 mm -3.8°
7
84%5 cm warningclass
14:00
Voelt als: -4.0°
1000.0 hPa 9.2 mm -4.6°
7
80%5 cm
17:00
Voelt als: -4.6°
1001.5 hPa 11.3 mm -4.6°
9
84%5 cm
20:00
Voelt als: -5.5°
1002.7 hPa 10.1 mm -4.3°
10
88%5 cm warningclass
23:00
Voelt als: -5.5°
1004.4 hPa 10.0 mm -5.9°
9
86%5 cm warningclass
 06:45     20:33    Daglengte: 13:48 Zaterdag 04 Apr
02:00
Voelt als: -5.7°
1006.3 hPa 13.2 mm -5.4°
11
71%6 cm warningclass
05:00
Voelt als: -5.6°
1009.7 hPa 8.8 mm -5.2°
7
83%6 cm warningclass
08:00
-0°
Voelt als: -5.2°
1012.4 hPa 12.0 mm -3.9°
5
93%6 cm warningclass
11:00
Voelt als: -5.2°
1015.2 hPa 14.5 mm -2.7°
6
87%6 cm warningclass
14:00
Voelt als: -4.3°
1017.4 hPa   -3.9°
6
97%5 cm
17:00
Voelt als: -1.7°
1017.1 hPa 21.7 mm -2.8°
4
92%5 cm
20:00
Voelt als: -1.7°
1016.1 hPa 14.3 mm -2.3°
4
99%5 cm
23:00
Voelt als: -0.5°
1015.0 hPa   -0.6°
4
100%6 cm
 06:41     20:35    Daglengte: 13:54 Zondag 05 Apr
02:00
Voelt als: -0.5°
1014.0 hPa 9.3 mm -0.2°
4
100%5 cm
05:00
Voelt als: -0.7°
1014.2 hPa 30.5 mm 0.4°
5
100%5 cm
08:00
Voelt als: -0.1°
1014.1 hPa 32.5 mm 1.4°
7
100%5 cm
11:00
Voelt als: 3.3°
1015.3 hPa 39.2 mm 2.9°
7
92%
14:00
Voelt als: 4.5°
1015.2 hPa 39.2 mm 3.5°
7
92%
17:00
Voelt als: 4.6°
1014.1 hPa 39.2 mm 3.5°
6
92%
20:00
Voelt als: 4.9°
1012.9 hPa 39.2 mm 3.3°
5
92%
23:00
Voelt als: 4.5°
1011.1 hPa 39.2 mm 2.9°
4
92%
 06:38     20:38    Daglengte: 14:00 Maandag 06 Apr
02:00
Voelt als: 4.2°
1009.3 hPa 39.2 mm 2.6°
3
92%
05:00
Voelt als: 4.5°
1006.7 hPa 39.2 mm 2.8°
4
92%
08:00
Voelt als: 5.0°
1004.2 hPa 39.2 mm 3.0°
4
92%
11:00
Voelt als: 6.4°
1003.1 hPa 39.7 mm 4.6°
4
92%
14:00
10°
Voelt als: 7.9°
1002.0 hPa 40.1 mm 6.1°
3
92%
17:00
10°
Voelt als: 7.5°
1002.5 hPa 41.5 mm 6.6°
5
92%
20:00
10°
1003.2 hPa 41.7 mm 6.8°
6
92%
23:00
Voelt als: 5.7°
1005.4 hPa 42.7 mm 6.4°
7
85%
 06:35     20:41    Daglengte: 14:06 Dinsdag 07 Apr
02:00
Voelt als: 4.2°
1007.5 hPa 43.6 mm 5.9°
9
79%
05:00
Voelt als: 3.6°
1009.4 hPa 45.1 mm 5.4°
8
82%
08:00
Voelt als: 3.0°
1011.3 hPa 46.8 mm 4.9°
8
86%
11:00
Voelt als: 3.4°
1011.3 hPa 48.1 mm 5.2°
10
88%
14:00
Voelt als: 4.0°
1011.2 hPa 48.7 mm 5.6°
12
90%
17:00
Voelt als: 3.8°
1011.6 hPa 48.9 mm 5.7°
11
90%
20:00
Voelt als: 3.6°
1011.8 hPa 49.0 mm 5.8°
10
91%
23:00
Voelt als: 4.0°
1015.8 hPa 49.1 mm 5.2°
7
90%
 06:31     20:44    Daglengte: 14:13 Woensdag 08 Apr
02:00
Voelt als: 4.7°
1019.7 hPa 49.1 mm 4.7°
4
90%
05:00
Voelt als: 4.4°
1019.2 hPa 49.1 mm 4.5°
4
90%
08:00
Voelt als: 4.2°
1018.7 hPa 49.1 mm 4.3°
4
91%
11:00
Voelt als: 5.7°
1018.1 hPa 49.2 mm 4.8°
5
91%
14:00
10°
Voelt als: 7.2°
1017.6 hPa 49.5 mm 5.2°
5
91%
17:00
Voelt als: 6.7°
1012.4 hPa 49.5 mm 5.6°
5
91%
20:00
Voelt als: 6.1°
1007.2 hPa 49.5 mm 5.9°
6
92%
23:00
Voelt als: 6.0°
1008.2 hPa 49.5 mm 5.9°
5
92%
 06:28     20:47    Daglengte: 14:19 Donderdag 09 Apr
02:00
Voelt als: 5.8°
1009.3 hPa 49.5 mm 6.0°
6
92%
05:00
Voelt als: 4.9°
1009.7 hPa 49.8 mm 5.5°
5
90%
08:00
Voelt als: 4.0°
1010.1 hPa 99.9 mm 5.0°
5
87%
14:00
Voelt als: 5.9°
1008.7 hPa 108.4 mm 6.3°
6
91%
20:00
Voelt als: 5.0°
1008.8 hPa 118.2 mm 6.5°
6
92%
 06:25     20:49    Daglengte: 14:24 Vrijdag 10 Apr
02:00
Voelt als: 4.3°
1009.9 hPa 124.6 mm 5.7°
5
85%
08:00
Voelt als: 4.7°
1018.7 hPa 125.9 mm 4.0°
2
87%
14:00
Voelt als: 7.2°
1018.1 hPa 127.0 mm 4.1°
2
91%
20:00
Voelt als: 3.9°
1013.4 hPa 130.9 mm 5.8°
7
92%
 06:22     20:52    Daglengte: 14:30 Zaterdag 11 Apr
02:00
Voelt als: 3.6°
1012.9 hPa 135.9 mm 4.7°
5
92%
08:00
Voelt als: 3.8°
1017.9 hPa 146.0 mm 3.4°
3
92%
14:00
Voelt als: -2.7°
1024.1 hPa 149.8 mm -3.7°
6
1%
20:00
Voelt als: -3.1°
1027.6 hPa 154.4 mm -4.4°
8
1%
 06:18     20:55    Daglengte: 14:37 Zondag 12 Apr
02:00
Voelt als: -3.8°
1029.8 hPa 156.9 mm -3.8°
7
1%
08:00
Voelt als: 1.9°
1012.9 hPa 1.4 mm 1.1°
4
63%
14:00
Voelt als: 6.2°
1011.3 hPa 1.0 mm 2.2°
4
64%
20:00
Voelt als: 5.3°
1009.4 hPa 0.1 mm 2.6°
3
62%
 06:15     20:58    Daglengte: 14:43 Maandag 13 Apr
02:00
Voelt als: 2.9°
1008.3 hPa 1.3 mm 1.8°
2
59%
08:00
Voelt als: 2.8°
1006.2 hPa 1.8 mm 1.3°
2
64%
14:00
Voelt als: 5.8°
1005.9 hPa 1.6 mm 1.2°
2
58%
20:00
Voelt als: 5.1°
1006.0 hPa 0.4 mm 1.4°
2
54%
 06:12     21:00    Daglengte: 14:48 Dinsdag 14 Apr
02:00
Voelt als: 1.9°
1006.7 hPa 0.8 mm 0.8°
2
50%
08:00
Voelt als: 2.0°
1006.2 hPa 0.8 mm 0.5°
2
58%
14:00
Voelt als: 5.9°
1006.6 hPa 1.3 mm 0.6°
2
57%
20:00
1007.1 hPa 1.8 mm 1.1°
1
56%
 06:08     21:03    Daglengte: 14:55 Woensdag 15 Apr
02:00
Voelt als: 3.8°
1007.9 hPa 1.5 mm 0.7°
1
53%
08:00
Voelt als: 3.8°
1008.4 hPa 1.2 mm 0.5°
1
51%
14:00
Voelt als: 6.7°
1009.9 hPa 0.9 mm 0.9°
1
46%
20:00
Voelt als: 5.1°
1012.0 hPa 0.9 mm 0.8°
1
49%
 06:05     21:06    Daglengte: 15:01 Donderdag 16 Apr
02:00
Voelt als: 3.5°
1014.5 hPa 0.8 mm 0.3°
0
43%
08:00
Voelt als: 3.9°
1015.6 hPa 0.8 mm 0.3°
0
39%
14:00
Voelt als: 7.3°
1016.1 hPa 0.7 mm 0.8°
1
38%
20:00
1016.1 hPa 0.8 mm 1.2°
1
41%
 06:02     21:09    Daglengte: 15:07 Vrijdag 17 Apr
02:00
Voelt als: 3.0°
1016.2 hPa 0.5 mm 0.7°
2
41%
08:00
Voelt als: 3.2°
1014.7 hPa 1.2 mm 0.2°
2
50%
  CAPE Lifted Index Hail Supercell Tornado SRH 3km CL BTM PRES CL TOP PRES Swiss DWD icon SMHI TS
 06:51     20:27    Daglengte: 13:36 Vandaag
10:00 115 J/kg 2.1 K 0 % 0 % 0 % 0 m²/s² 0 0 3.06 86
11:00 303 J/kg 0.6 K 0 % 0 % 0 % 0 m²/s² 0 0 2.13 95
12:00 249 J/kg -0.3 K 0 % 0 % 0 % 0 m²/s² 0 0 0.84 86
13:00 215 J/kg 0.1 K 0 % 0 % 0 % 0 m²/s² 0 0 2.32 86
14:00 215 J/kg -0.1 K 0 % 0 % 0 % 0 m²/s² 0 0 0.98 86
15:00 173 J/kg -0.2 K 0 % 0 % 0 % 0 m²/s² 0 0 1.87 86
16:00 45 J/kg 0.6 K 0 % 0 % 0 % 0 m²/s² 0 0 2.43 86
17:00 87 J/kg 0.1 K 0 % 0 % 0 % 0 m²/s² 0 0 0.82 86
18:00 132 J/kg 0.8 K 0 % 0 % 0 % 0 m²/s² 0 0 1.46 86
19:00 154 J/kg 1.6 K 0 % 0 % 0 % 0 m²/s² 0 0 2.35 86
20:00 216 J/kg 1.2 K 0 % 0 % 0 % 0 m²/s² 0 0 1.95 85
21:00 80 J/kg 2.0 K 0 % 0 % 0 % 0 m²/s² 0 0 2.87 85
22:00 92 J/kg 2.3 K 0 % 0 % 0 % 0 m²/s² 0 0 3.59 85
23:00 200 J/kg 1.2 K 0 % 0 % 0 % 0 m²/s² 0 0 1.83 85
 06:48     20:30    Daglengte: 13:42 Morgen
00:00 142 J/kg 2.3 K 0 % 0 % 0 % 0 m²/s² 0 0 3.98 85
01:00 131 J/kg 3.2 K 0 % 0 % 0 % 0 m²/s² 0 0 5.87 85
02:00 167 J/kg 2.6 K 0 % 0 % 0 % 0 m²/s² 0 0 3.29 85
03:00 96 J/kg 2.4 K 0 % 0 % 0 % 0 m²/s² 0 0 3.15 85
04:00 200 J/kg 0.9 K 0 % 0 % 0 % 0 m²/s² 0 0 1.53 85
05:00 284 J/kg -0.5 K 0 % 0 % 0 % 0 m²/s² 0 0 0.19 85
06:00 233 J/kg -0.6 K 0 % 0 % 0 % 0 m²/s² 0 0 -0.03 85
07:00 94 J/kg 0.5 K 0 % 0 % 0 % 0 m²/s² 0 0 1.22 85
08:00 279 J/kg 0.0 K 0 % 0 % 0 % 0 m²/s² 0 0 1.5 85
09:00 87 J/kg 2.0 K 0 % 0 % 0 % 0 m²/s² 0 0 2.96 85
10:00 155 J/kg 2.1 K 0 % 0 % 0 % 0 m²/s² 0 0 3.09 86
11:00 174 J/kg 2.1 K 0 % 0 % 0 % 0 m²/s² 0 0 3 86
12:00 172 J/kg 2.3 K 0 % 0 % 0 % 0 m²/s² 0 0 3.14 86
13:00 119 J/kg 3.1 K 0 % 0 % 0 % 0 m²/s² 0 0 3.97 85
14:00 69 J/kg 4.0 K 0 % 0 % 0 % 0 m²/s² 0 0 5.2 85
15:00 106 J/kg 3.4 K 0 % 0 % 0 % 0 m²/s² 0 0 4.18 86
16:00 184 J/kg 2.9 K 0 % 0 % 0 % 0 m²/s² 0 0 3.71 85
17:00 192 J/kg 2.6 K 0 % 0 % 0 % 0 m²/s² 0 0 3.62 86
18:00 144 J/kg 2.6 K 0 % 0 % 0 % 0 m²/s² 0 0 3.32 86
19:00 244 J/kg 2.5 K 0 % 0 % 0 % 0 m²/s² 0 0 3.7 86
20:00 217 J/kg 2.4 K 0 % 0 % 0 % 0 m²/s² 0 0 3.06 86
21:00 142 J/kg 3.4 K 0 % 0 % 0 % 0 m²/s² 0 0 4.6 86
22:00 94 J/kg 3.7 K 0 % 0 % 0 % 0 m²/s² 0 0 5.14 86
23:00 98 J/kg 3.4 K 0 % 0 % 0 % 0 m²/s² 0 0 5.65 86
 06:45     20:33    Daglengte: 13:48 Zaterdag 04 Apr
00:00 46 J/kg 3.1 K 0 % 0 % 0 % 0 m²/s² 0 0 3.76 86
01:00 105 J/kg 2.0 K 0 % 0 % 0 % 0 m²/s² 0 0 2.66 86
02:00 147 J/kg 1.9 K 0 % 0 % 0 % 0 m²/s² 0 0 2.65 85
03:00 179 J/kg 2.4 K 0 % 0 % 0 % 0 m²/s² 0 0 3.12 85
04:00 119 J/kg 3.8 K 0 % 0 % 0 % 0 m²/s² 0 0 4.58 85
05:00 105 J/kg 5.3 K 0 % 0 % 0 % 0 m²/s² 0 0 7.25 85
06:00 128 J/kg 5.6 K 0 % 0 % 0 % 0 m²/s² 0 0 6.8 86
07:00 102 J/kg 6.5 K 0 % 0 % 0 % 0 m²/s² 0 0 8.6 86
08:00 85 J/kg 6.9 K 0 % 0 % 0 % 0 m²/s² 0 0 10.29 86
09:00 112 J/kg 7.3 K 0 % 0 % 0 % 0 m²/s² 0 0 9.49 86
10:00 93 J/kg 7.5 K 0 % 0 % 0 % 0 m²/s² 0 0 10.08 86
11:00 66 J/kg 7.7 K 0 % 0 % 0 % 0 m²/s² 0 0 12.17 86
12:00 57 J/kg 8.8 K 0 % 0 % 0 % 0 m²/s² 0 0 14.17 86
13:00 26 J/kg 9.8 K 0 % 0 % 0 % 0 m²/s² 0 0 14.63 85
14:00 13 J/kg 10.1 K 0 % 0 % 0 % 0 m²/s² 0 0 14.24 85
15:00 9 J/kg 10.3 K 0 % 0 % 0 % 0 m²/s² 0 0 13.21 85
16:00 9 J/kg 9.8 K 0 % 0 % 0 % 0 m²/s² 0 0 10.64 85
17:00 0 J/kg 10.1 K 0 % 0 % 0 % 0 m²/s² 0 0 10.73 85
18:00 7 J/kg 10.5 K 0 % 0 % 0 % 0 m²/s² 0 0 11.1 85
19:00 0 J/kg 10.7 K 0 % 0 % 0 % 0 m²/s² 0 0 11.24 85
20:00 0 J/kg 9.4 K 0 % 0 % 0 % 0 m²/s² 0 0 9.91 3
21:00 0 J/kg 7.4 K 0 % 0 % 0 % 0 m²/s² 0 0 7.85 3
22:00 0 J/kg 5.0 K 0 % 0 % 0 % 0 m²/s² 0 0 5.45 3
23:00 0 J/kg 3.7 K 0 % 0 % 0 % 0 m²/s² 0 0 4.15 3
 06:41     20:35    Daglengte: 13:54 Zondag 05 Apr
00:00 0 J/kg 4.3 K 0 % 0 % 0 % 0 m²/s² 0 0 4.75 3
01:00 0 J/kg 4.1 K 0 % 0 % 0 % 0 m²/s² 0 0 4.52 3
02:00 0 J/kg 5.1 K 0 % 0 % 0 % 0 m²/s² 0 0 5.49 3
03:00 0 J/kg 5.6 K 0 % 0 % 0 % 0 m²/s² 0 0 6.02 71
04:00 0 J/kg 6.9 K 0 % 0 % 0 % 0 m²/s² 0 0 7.38 73
05:00 0 J/kg 7.7 K 0 % 0 % 0 % 0 m²/s² 0 0 8.18 73
06:00 0 J/kg 8.2 K 0 % 0 % 0 % 0 m²/s² 0 0 8.68 73
07:00 0 J/kg 8.6 K 0 % 0 % 0 % 0 m²/s² 0 0 10.13 73
08:00 0 J/kg 8.4 K 0 % 0 % 0 % 0 m²/s² 0 0 8.82 73
09:00 0 J/kg 0.0 K 0 % 0 % 0 % 0 m²/s² 0 0 13.83
Temp Baro Wind Neerslag
  EWN Forecast EWN WRFDA DWD ICON FMI HIRLAM MET Norway GFS
 06:51     20:27    Daglengte: 13:36 Vandaag
11:00 1.4° 975.8 hPa 9.2 m/s 7.4 mm 0.2° 972.5 hPa 9.5 m/s 17.5 mm 1.3° 977.5 hPa 7.2 m/s 5.8 mm 2.1° 975.9 hPa 8.0 m/s 0.0 mm 1.1° 975.7 hPa 8.9 m/s 2.0° 976.3 hPa 12.2 m/s
14:00 2.3° 976.5 hPa 7.1 m/s 6.3 mm 1.8° 973.1 hPa 9.0 m/s 20.4 mm 1.2° 978.6 hPa 6.7 m/s 4.2 mm 2.2° 976.5 hPa 6.2 m/s 0.0 mm 2.7° 975.9 hPa 6.5 m/s 2.7° 976.8 hPa 12.8 m/s
17:00 2.0° 977.5 hPa 8.4 m/s 6.2 mm 1.8° 975.2 hPa 9.1 m/s 23.7 mm 1.6° 979.1 hPa 7.2 m/s 3.9 mm 3.1° 977.8 hPa 10.2 m/s 0.0 mm 1.5° 976.3 hPa 7.6 m/s 2.5° 979.6 hPa 11.9 m/s
20:00 3.3° 981.8 hPa 10.9 m/s 6.0 mm 2.6° 981.3 hPa 11.3 m/s 27.6 mm 2.5° 983.7 hPa 9.7 m/s 3.0 mm 3.1° 983.8 hPa 12.8 m/s 0.0 mm 3.4° 981.3 hPa 9.8 m/s 3.0° 984.8 hPa 15.2 m/s
23:00 2.8° 987.4 hPa 10.5 m/s 6.9 mm 1.6° 985.1 hPa 11.4 m/s 29.2 mm 1.7° 987.9 hPa 6.8 m/s 1.5 mm 2.7° 987.8 hPa 9.8 m/s 0.0 mm 3.1° 987.6 hPa 11.8 m/s 2.4° 988.8 hPa 12.4 m/s
 06:48     20:30    Daglengte: 13:42 Morgen
02:00 1.8° 990.5 hPa 10.0 m/s 7.6 mm 0.5° 988.9 hPa 11.8 m/s 30.4 mm 0.8° 991.7 hPa 7.3 m/s 2.1 mm 2.3° 991.3 hPa 8.7 m/s 0.0 mm 1.8° 990.3 hPa 13.4 m/s 2.2° 992.7 hPa 13.0 m/s
05:00 1.8° 992.4 hPa 8.5 m/s 8.5 mm 0.8° 989.7 hPa 11.5 m/s 35.9 mm 0.6° 993.6 hPa 6.6 m/s 2.3 mm 1.9° 992.5 hPa 8.6 m/s 0.0 mm 1.9° 992.1 hPa 8.2 m/s 1.6° 994.0 hPa 10.6 m/s
08:00 1.2° 994.4 hPa 7.1 m/s 9.2 mm 0.7° 991.9 hPa 11.0 m/s 42.8 mm 0.1° 995.1 hPa 6.3 m/s 2.3 mm 1.4° 994.5 hPa 6.9 m/s 0.0 mm 1.2° 994.4 hPa 6.6 m/s 1.4° 996.3 hPa 9.7 m/s
11:00 0.8° 997.4 hPa 7.5 m/s 10.9 mm 0.7° 994.8 hPa 8.8 m/s 46.8 mm 0.2° 997.3 hPa 5.4 m/s 3.0 mm 1.5° 997.3 hPa 7.1 m/s 0.0 mm 0.4° 997.8 hPa 11.2 m/s 1.1° 998.6 hPa 9.0 m/s
14:00 1.6° 1000.0 hPa 7.5 m/s 9.2 mm 1.2° 997.9 hPa 9.4 m/s 48.1 mm 0.3° 999.6 hPa 6.8 m/s 2.7 mm 1.4° 999.9 hPa 8.4 m/s 0.0 mm 2.0° 1000.5 hPa 6.7 m/s 1.0° 1000.8 hPa 9.3 m/s
17:00 1.6° 1001.5 hPa 9.1 m/s 11.3 mm 0.4° 999.9 hPa 10.5 m/s 49.3 mm 0.0° 1000.9 hPa 7.5 m/s 2.9 mm 1.7° 1001.3 hPa 8.1 m/s 0.0 mm 1.9° 1002.7 hPa 9.3 m/s 1.0° 1002.7 hPa 10.0 m/s
20:00 1.1° 1002.7 hPa 9.7 m/s 10.1 mm -0.8° 1001.6 hPa 8.8 m/s 52.5 mm -0.3° 1002.1 hPa 6.8 m/s 3.3 mm 1.2° 1002.6 hPa 9.8 m/s 0.0 mm 1.3° 1003.7 hPa 10.2 m/s 1.0° 1004.5 hPa 11.7 m/s
23:00 1.0° 1004.4 hPa 9.2 m/s 10.0 mm 0.0° 1003.9 hPa 9.6 m/s 55.6 mm -0.6° 1003.3 hPa 7.9 m/s 4.0 mm 1.2° 1004.6 hPa 9.3 m/s 0.0 mm 1.1° 1005.8 hPa 9.0 m/s 0.3° 1006.2 hPa 9.3 m/s
 06:45     20:33    Daglengte: 13:48 Zaterdag 04 Apr
02:00 1.2° 1006.3 hPa 10.8 m/s 13.2 mm 0.3° 1006.0 hPa 11.8 m/s 56.3 mm -0.6° 1005.3 hPa 6.7 m/s 3.4 mm 1.5° 1004.7 hPa 9.9 m/s 0.0 mm 1.4° 1008.0 hPa 11.3 m/s 0.6° 1008.8 hPa 10.6 m/s
05:00 0.2° 1009.7 hPa 6.8 m/s 8.8 mm 0.3° 1010.0 hPa 8.8 m/s 60.2 mm -1.1° 1007.4 hPa 7.4 m/s 2.2 mm 0.1° 1010.7 hPa 3.4 m/s 0.6° 1011.5 hPa 9.7 m/s
08:00 -0.0° 1012.4 hPa 5.4 m/s 12.0 mm 0.4° 1012.7 hPa 8.0 m/s 62.7 mm -0.9° 1009.7 hPa 6.9 m/s 3.7 mm -0.2° 1013.9 hPa 5.0 m/s 0.4° 1014.2 hPa 9.2 m/s
11:00 0.2° 1015.2 hPa 6.0 m/s 14.5 mm 1.0° 1015.4 hPa 6.8 m/s 63.1 mm -0.3° 1012.2 hPa 6.3 m/s 4.1 mm -0.2° 1017.0 hPa 4.6 m/s 0.4° 1016.2 hPa 9.0 m/s
14:00 0.9° 1017.4 hPa 6.1 m/s 0.0 mm 1.7° 1017.5 hPa 6.6 m/s 63.3 mm 0.2° 1014.7 hPa 5.3 m/s 2.7 mm 0.7° 1019.4 hPa 6.3 m/s 1.6° 1017.9 hPa 7.6 m/s
17:00 2.1° 1017.1 hPa 4.0 m/s 21.7 mm 2.1° 1017.0 hPa 4.2 m/s 63.3 mm 0.7° 1015.6 hPa 4.1 m/s 0.9 mm 2.2° 1018.9 hPa 5.1 m/s 1.9° 1016.9 hPa 2.5 m/s
20:00 2.0° 1016.1 hPa 3.7 m/s 14.3 mm 0.1° 1014.5 hPa 5.7 m/s 63.9 mm 0.6° 1015.7 hPa 1.2 m/s 0.4 mm 3.7° 1018.4 hPa 3.9 m/s 2.4° 1015.0 hPa 4.9 m/s
23:00 3.0° 1015.0 hPa 3.9 m/s 0.0 mm 4.0° 1009.5 hPa 7.9 m/s 71.2 mm 0.1° 1015.2 hPa 2.8 m/s 0.0 mm 3.5° 1017.0 hPa 3.5 m/s 0.6° 1013.4 hPa 6.2 m/s
 06:41     20:35    Daglengte: 13:54 Zondag 05 Apr
02:00 3.0° 1014.0 hPa 3.8 m/s 9.3 mm 4.2° 1011.0 hPa 10.8 m/s 78.3 mm 0.3° 1014.1 hPa 2.9 m/s 0.0 mm 3.3° 1015.6 hPa 3.1 m/s 2.3° 1012.0 hPa 6.3 m/s
05:00 3.5° 1014.2 hPa 5.3 m/s 30.5 mm 5.0° 1010.8 hPa 9.6 m/s 82.4 mm -1.0° 1013.0 hPa 4.6 m/s 4.5 mm 4.2° 1015.8 hPa 4.9 m/s 2.7° 1010.6 hPa 6.7 m/s
08:00 4.4° 1014.1 hPa 6.6 m/s 32.5 mm 5.3° 1010.2 hPa 8.6 m/s 82.4 mm -0.1° 1012.8 hPa 5.0 m/s 7.5 mm 5.2° 1015.9 hPa 6.7 m/s 4.3° 1010.3 hPa 7.1 m/s
11:00 7.2° 1015.3 hPa 7.1 m/s 39.2 mm 7.3° 1015.8 hPa 7.2 m/s 5.7° 1009.6 hPa 6.7 m/s 39.2 mm
14:00 8.2° 1015.2 hPa 7.3 m/s 39.2 mm 8.4° 1015.8 hPa 7.4 m/s 5.9° 1009.0 hPa 6.1 m/s 39.2 mm
17:00 8.0° 1014.1 hPa 6.3 m/s 39.2 mm 8.2° 1014.6 hPa 6.2 m/s 6.3° 1008.1 hPa 7.0 m/s 39.2 mm
20:00 7.9° 1012.9 hPa 5.2 m/s 39.2 mm 8.0° 1013.5 hPa 5.1 m/s 6.9° 1006.8 hPa 5.8 m/s 39.2 mm
23:00 7.2° 1011.1 hPa 4.1 m/s 39.2 mm 7.2° 1011.6 hPa 3.9 m/s 6.6° 1005.6 hPa 6.0 m/s 39.2 mm
 06:38     20:38    Daglengte: 14:00 Maandag 06 Apr
02:00 6.5° 1009.3 hPa 3.1 m/s 39.2 mm 6.5° 1009.8 hPa 2.8 m/s 6.6° 1003.7 hPa 6.8 m/s 39.2 mm
05:00 7.0° 1006.7 hPa 3.7 m/s 39.2 mm 7.0° 1007.2 hPa 3.3 m/s 6.6° 1001.1 hPa 7.8 m/s 39.2 mm
08:00 7.5° 1004.2 hPa 4.1 m/s 39.2 mm 7.6° 1004.7 hPa 3.8 m/s 7.0° 998.7 hPa 7.0 m/s 39.2 mm
11:00 8.5° 1003.1 hPa 3.6 m/s 39.7 mm 8.6° 1003.7 hPa 3.3 m/s 7.4° 996.9 hPa 7.0 m/s 39.7 mm
14:00 9.5° 1002.0 hPa 3.1 m/s 40.1 mm 9.7° 1002.6 hPa 2.8 m/s 7.6° 995.7 hPa 6.5 m/s 40.1 mm
17:00 9.8° 1002.5 hPa 4.7 m/s 41.5 mm 10.1° 1003.2 hPa 4.4 m/s 7.5° 995.4 hPa 7.2 m/s 41.5 mm
20:00 10.1° 1003.2 hPa 6.3 m/s 41.7 mm 10.4° 1003.8 hPa 6.1 m/s 6.6° 996.9 hPa 8.4 m/s 41.7 mm
23:00 9.1° 1005.4 hPa 7.4 m/s 42.7 mm 9.4° 1005.9 hPa 6.8 m/s 5.5° 999.4 hPa 14.4 m/s 42.7 mm
 06:35     20:41    Daglengte: 14:06 Dinsdag 07 Apr
02:00 8.2° 1007.5 hPa 8.5 m/s 43.6 mm 8.5° 1008.0 hPa 7.4 m/s 5.3° 1002.0 hPa 21.2 m/s 43.6 mm
05:00 7.7° 1009.4 hPa 8.4 m/s 45.1 mm 8.0° 1009.9 hPa 7.3 m/s 4.4° 1004.7 hPa 19.8 m/s 45.1 mm
08:00 7.2° 1011.3 hPa 8.5 m/s 46.8 mm 7.5° 1011.7 hPa 7.3 m/s 4.4° 1007.4 hPa 21.3 m/s 46.8 mm
11:00 7.9° 1011.3 hPa 10.1 m/s 48.1 mm 8.2° 1011.3 hPa 9.0 m/s 5.5° 1010.9 hPa 22.4 m/s 48.1 mm
14:00 8.6° 1011.2 hPa 11.6 m/s 48.7 mm 8.8° 1010.9 hPa 10.7 m/s 6.1° 1014.6 hPa 21.1 m/s 48.7 mm
17:00 8.3° 1011.6 hPa 10.6 m/s 48.9 mm 8.5° 1011.0 hPa 10.1 m/s 5.7° 1017.2 hPa 15.6 m/s 48.9 mm
20:00 8.0° 1011.8 hPa 9.6 m/s 49.0 mm 8.2° 1011.2 hPa 9.5 m/s 5.5° 1017.9 hPa 11.1 m/s 49.0 mm
23:00 7.6° 1015.8 hPa 6.5 m/s 49.1 mm 7.8° 1015.5 hPa 6.5 m/s 5.6° 1018.1 hPa 7.4 m/s 49.1 mm
 06:31     20:44    Daglengte: 14:13 Woensdag 08 Apr
02:00 7.2° 1019.7 hPa 3.8 m/s 49.1 mm 7.4° 1019.9 hPa 3.4 m/s 5.5° 1017.7 hPa 7.9 m/s 49.1 mm
05:00 7.1° 1019.2 hPa 4.0 m/s 49.1 mm 7.2° 1019.4 hPa 3.6 m/s 6.0° 1017.0 hPa 7.9 m/s 49.1 mm
08:00 7.0° 1018.7 hPa 4.2 m/s 49.1 mm 7.0° 1018.9 hPa 3.9 m/s 6.6° 1016.5 hPa 7.0 m/s 49.1 mm
11:00 8.4° 1018.1 hPa 4.7 m/s 49.2 mm 8.5° 1018.3 hPa 4.6 m/s 6.8° 1016.5 hPa 5.7 m/s 49.2 mm
14:00 9.8° 1017.6 hPa 5.4 m/s 49.5 mm 10.0° 1017.7 hPa 5.3 m/s 7.8° 1016.4 hPa 6.4 m/s 49.5 mm
17:00 9.4° 1012.4 hPa 5.5 m/s 49.5 mm 9.6° 1012.2 hPa 5.3 m/s 7.7° 1014.9 hPa 6.9 m/s 49.5 mm
20:00 9.0° 1007.2 hPa 5.5 m/s 49.5 mm 9.1° 1006.7 hPa 5.4 m/s 7.5° 1013.0 hPa 6.8 m/s 49.5 mm
23:00 8.9° 1008.2 hPa 5.5 m/s 49.5 mm 8.9° 1007.9 hPa 5.4 m/s 7.8° 1011.9 hPa 6.3 m/s 49.5 mm
 06:28     20:47    Daglengte: 14:19 Donderdag 09 Apr
02:00 8.7° 1009.3 hPa 5.5 m/s 49.5 mm 8.8° 1009.1 hPa 5.4 m/s 7.9° 1011.0 hPa 6.6 m/s 49.5 mm
05:00 8.0° 1009.7 hPa 5.4 m/s 49.8 mm 8.0° 1009.7 hPa 5.3 m/s 7.5° 1009.3 hPa 6.6 m/s 49.8 mm
08:00 7.2° 1010.1 hPa 5.3 m/s 50.1 mm 7.2° 1010.3 hPa 5.2 m/s 7.6° 1007.8 hPa 5.8 m/s 50.1 mm
14:00 9.0° 1008.7 hPa 6.2 m/s 56.6 mm 9.1° 1008.8 hPa 6.4 m/s 7.5° 1007.7 hPa 4.2 m/s 56.6 mm
20:00 8.1° 1008.8 hPa 5.8 m/s 60.3 mm 8.2° 1008.8 hPa 6.0 m/s 7.6° 1008.7 hPa 3.1 m/s 60.3 mm
 06:25     20:49    Daglengte: 14:24 Vrijdag 10 Apr
02:00 7.2° 1009.9 hPa 4.5 m/s 62.9 mm 7.3° 1009.6 hPa 4.1 m/s 5.6° 1012.9 hPa 9.2 m/s 62.9 mm
08:00 6.3° 1018.7 hPa 2.2 m/s 63.0 mm 6.3° 1019.0 hPa 1.6 m/s 5.7° 1015.0 hPa 8.6 m/s 63.0 mm
14:00 8.4° 1018.1 hPa 2.2 m/s 63.9 mm 8.6° 1018.3 hPa 1.5 m/s 6.5° 1015.6 hPa 9.9 m/s 63.9 mm
20:00 7.7° 1013.4 hPa 7.2 m/s 66.0 mm 7.9° 1013.3 hPa 7.0 m/s 5.8° 1014.0 hPa 9.9 m/s 66.0 mm
 06:22     20:52    Daglengte: 14:30 Zaterdag 11 Apr
02:00 6.9° 1012.9 hPa 5.1 m/s 68.7 mm 7.0° 1012.7 hPa 4.6 m/s 5.5° 1014.8 hPa 10.9 m/s 68.7 mm
08:00 6.1° 1017.9 hPa 3.2 m/s 73.9 mm 6.5° 1017.8 hPa 2.9 m/s 2.2° 1018.8 hPa 6.1 m/s 73.9 mm
14:00 2.2° 1024.1 hPa 6.0 m/s 75.4 mm 2.2° 1024.1 hPa 6.0 m/s 75.4 mm
20:00 2.4° 1027.6 hPa 7.5 m/s 77.7 mm 2.4° 1027.6 hPa 7.5 m/s 77.7 mm
 06:18     20:55    Daglengte: 14:37 Zondag 12 Apr
02:00 1.7° 1029.8 hPa 7.1 m/s 78.7 mm 1.7° 1029.8 hPa 7.1 m/s 78.7 mm
08:00 4.9° 1012.9 hPa 3.7 m/s 1.4 mm
14:00 8.5° 1011.3 hPa 3.9 m/s 1.0 mm
20:00 7.3° 1009.4 hPa 3.0 m/s 0.1 mm
 06:15     20:58    Daglengte: 14:43 Maandag 13 Apr
02:00 5.0° 1008.3 hPa 2.5 m/s 1.3 mm
08:00 4.8° 1006.2 hPa 2.3 m/s 1.8 mm
14:00 7.3° 1005.9 hPa 2.2 m/s 1.6 mm
20:00 6.0° 1006.0 hPa 1.5 m/s 0.4 mm
 06:12     21:00    Daglengte: 14:48 Dinsdag 14 Apr
02:00 3.9° 1006.7 hPa 2.2 m/s 0.8 mm
08:00 3.9° 1006.2 hPa 2.1 m/s 0.8 mm
14:00 6.9° 1006.6 hPa 1.6 m/s 1.3 mm
20:00 6.0° 1007.1 hPa 0.7 m/s 1.8 mm
 06:08     21:03    Daglengte: 14:55 Woensdag 15 Apr
02:00 3.8° 1007.9 hPa 0.7 m/s 1.5 mm
08:00 3.8° 1008.4 hPa 0.5 m/s 1.2 mm
14:00 7.0° 1009.9 hPa 1.1 m/s 0.9 mm
20:00 5.6° 1012.0 hPa 1.2 m/s 0.9 mm
 06:05     21:06    Daglengte: 15:01 Donderdag 16 Apr
02:00 3.5° 1014.5 hPa 0.3 m/s 0.8 mm
08:00 3.9° 1015.6 hPa 0.4 m/s 0.8 mm
14:00 7.3° 1016.1 hPa 0.7 m/s 0.7 mm
20:00 6.5° 1016.1 hPa 0.7 m/s 0.8 mm
 06:02     21:09    Daglengte: 15:07 Vrijdag 17 Apr
02:00 4.2° 1016.2 hPa 1.5 m/s 0.5 mm
08:00 4.4° 1014.7 hPa 1.5 m/s 1.2 mm